Location: Chochol
(49.7771°N, 14.9780°E)
Time: 17:39:47
(UTC+00:00)

Mayak - Pass Details

Date: 09 April 2020
Orbit: 581 x 600 km, 97.5° (Epoch: 04 June)

Event Time Altitude Azimuth Distance (km) Brightness Sun altitude
Rises 20:24:14 0° 24° (NNE) 2,823 ? -22.9°
Reaches altitude 10° 20:26:47 10° 39° (NE) 1,915 ? -23.2°
Enters shadow 20:27:53 15° 51° (NE) 1,591 ? -23.3°
